shijiazhuang , China , ASIA

  • Wednesday
    December 11

      Sunny

      25 °F

      No wind

       

  • Thursday
    December 12

    Sunny  Cloudy

    41 °F  28 °F

    South  No wind

        

  • Friday
    December 13

    Cloudy  Cloudy

    48 °F  28 °F

    No wind  North

        

  • Saturday
    December 14

    Overcast  Light snow

    41 °F  30 °F

    North  North

        

  • Sunday
    December 15

    Light snow  Light snow

    36 °F  30 °F

    North  North

        

  • Monday
    December 16

    Cloudy  Cloudy

    41 °F  30 °F

    North  North

        

  • Tuesday
    December 17

    Cloudy  Cloudy

    41 °F  28 °F

    North  North

        

Date   Weather Temperature Humidity Total_rain Visibility Wind
23:00 Sunny 28°F 47.9% 0mm 999.9km Southwest  1.5m/s
02:00 Sunny 29°F 56.6% 0mm 999.9km Southwest  1.4m/s
05:00 Sunny 27°F 63.3% 0mm 999.9km Southwest  1.1m/s
08:00 Sunny 25°F 61.7% 0mm 999.9km Southwest  1.2m/s
11:00 Sunny 36°F 54.1% 0mm 999.9km Southwest  1.5m/s
14:00 Sunny 41°F 46.6% 0mm 999.9km Southeast  2.0m/s
17:00 Sunny 40°F 50.3% 0mm 999.9km Southeast  1.1m/s
20:00 Sunny 35°F 41% 0mm 999.9km Southwest  1.1m/s
23:00 Cloudy 32°F 65.3% 0mm 999.9km Southwest  0.9m/s
02:00 Cloudy 29°F 70.2% 0mm 999.9km Southwest  1.4m/s
05:00 Cloudy 29°F 68% 0mm 999.9km Southwest  1.2m/s
08:00 Cloudy 30°F 59.5% 0mm 999.9km Northwest  1.3m/s
11:00 Cloudy 45°F 51.1% 0mm 999.9km Northwest  1.7m/s
14:00 Cloudy 48°F 41.8% 0mm 999.9km Northeast  2.3m/s
17:00 Cloudy 46°F 39.6% 0mm 999.9km Northeast  1.5m/s
20:00 Cloudy 40°F 37.3% 0mm 999.9km Southeast  0.9m/s
23:00 Cloudy 35°F 59.1% 0mm 999.9km Southeast  1.3m/s
02:00 Cloudy 31°F 68.9% 0mm 999.9km Southwest  1.0m/s
05:00 Cloudy 29°F 67.4% 0mm 999.9km Northeast  1.3m/s
08:00 Cloudy 29°F 62.8% 0mm 999.9km Northeast  1.1m/s
11:00 Overcast 38°F 58.3% 0mm 999.9km Northeast  1.4m/s
14:00 Overcast 41°F 55.3% 0mm 999.9km Northeast  2.0m/s
17:00 Overcast 36°F 49.6% 0mm 999.9km Northeast  1.1m/s
20:00 Overcast 34°F 45.3% 0mm 999.9km Northwest  1.1m/s
23:00 Sleet 31°F 66% 0.6mm 999.9km Northwest  1.1m/s
02:00 Sleet 31°F 67.2% 0.6mm 999.9km Northwest  1.0m/s
05:00 Sleet 31°F 69.6% 0.6mm 999.9km Northwest  1.0m/s
08:00 Sleet 31°F 71.5% 0.6mm 999.9km Northeast  0.8m/s
11:00 Overcast 33°F 58.7% 0mm 999.9km Northeast  0.5m/s
14:00 Overcast 34°F 58.3% 0mm 999.9km Northeast  1.1m/s
17:00 Overcast 35°F 57.8% 0mm 999.9km Northeast  1.4m/s
20:00 Sleet 30°F 50.6% 0.3mm 999.9km Northeast  1.2m/s
23:00 Light rain 38°F 76.7% 0.1mm 999.9km Northwest  1.8m/s
02:00 Light rain 38°F 79.7% 0.1mm 999.9km Northwest  1.9m/s
05:00 Light rain 38°F 80.2% 0.1mm 999.9km Northwest  1.9m/s
08:00 Light rain 36°F 82.8% 2.2mm 999.9km Northwest  2.0m/s
11:00 Cloudy 31°F 79.4% 0mm 999.9km Northeast  1.7m/s
14:00 Cloudy 41°F 79.6% 0mm 999.9km Northeast  1.3m/s
17:00 Cloudy 38°F 77.5% 0mm 999.9km Northeast  1.4m/s
20:00 Cloudy 38°F 75.4% 0mm 999.9km Northwest  1.4m/s
23:00 Cloudy 33°F 76.4% 0mm 999.9km Southwest  4.4m/s
02:00 Cloudy 33°F 77.5% 0mm 999.9km Northwest  3.1m/s
05:00 Cloudy 33°F 69.4% 0mm 999.9km Southwest  4.6m/s
08:00 Cloudy 36°F 62.9% 0mm 999.9km Northwest  2.7m/s
11:00 Cloudy 38°F 57% 0mm 999.9km Northwest  5.0m/s
14:00 Cloudy 41°F 57% 0mm 999.9km Northwest  3.5m/s
17:00 Cloudy 39°F 53% 0mm 999.9km Northwest  2.1m/s
20:00 Cloudy 31°F 49% 0mm 999.9km Northeast  1.3m/s
23:00 Cloudy 31°F 66.4% 0mm 999.9km Northeast  1.2m/s
02:00 Cloudy 35°F 74.9% 0mm 999.9km Northwest  1.3m/s
05:00 Cloudy 31°F 71.1% 0mm 999.9km Northeast  2.8m/s